ICEYE-X39 (60546 NORAD) Tracking and Keplerian Element Data

This shows tracking and keplerian element data for the satellite.

Feedback or suggestion? Click here.




ElementValue
Catalog60546
NameICEYE-X39
Epoch Orbit848
Epoch Day286.73567774
Epoch Year2024
RAAN1.2983
Inclination97.7385
Eccentricity0.0004416
Argument of Perigee334.0832
Mean Anonmoly26.0166
Mean Motion14.93480831
Decay Rate8.926E-05
L11 60546U 24149CG 24286.73567774 .00008926 00000+0 85298-3 0 9998
L22 60546 97.7385 1.2983 0004416 334.0832 26.0166 14.93480831 8485



Live tracking and technical data element details for ICEYE-X39 (NORAD 60546). ICEYE-X39 can be tracked NOW for your location showing map with azimuth and elevation plus other details from your city location.







IsCatalogInMostPopularTable: catalog: 60546, numindb: 4
Update: records affected: 1



GetName: 60546 ICEYE-X39

Hit Count: updated at: Wed, 04 Dec 2024 17:59:02 GMT